Location: *
(46.0770°N, 1.6444°E)
Time: 02:05:26
(UTC+00:00)

SL-16 R/B - Pass Details

Date: 16 September 2019
Orbit: 840 x 849 km, 71.0° (Epoch: 13 October)

Event Time Altitude Azimuth Distance (km) Brightness Sun altitude
Rises 22:24:12 0° 321° (NW) 3,415 6.3 -38.0°
Reaches altitude 10° 22:27:11 10° 306° (NW) 2,476 5.2 -38.3°
Enters shadow 22:29:26 18° 286° (WNW) 1,973 4.4 -38.4°
